Flag for U.S.A. Weather past 2 weeks in Laredo, Texas, U.S.A.

Now
95 °F

Sunny.


Feels Like: 101 °F
Forecast: 80 / 101 °F
Wind: 13 mph from Southeast

Location: Laredo International Airport

Current Time: Jul 28, 2014 at 12:27:40 PM

Latest Report: Jul 28, 2014 at 11:56 AM


Visibility: 10 mi

Pressure: 30.07 "Hg

Humidity: 44%

Dew point: 70 °F

Location of LaredoLocation

Historic Weather in Laredo — Graph

°F

Laredo temperature yesterday

Maximum temperature yesterday: 105 °F (at 4:56 PM)
Minimum temperature yesterday: 78 °F (at 6:56 AM)
Average temperature yesterday: 91 °F

Past Weeks' High & Low Weather Summary

 TemperatureHumidityPressure
High106 °F (Jul 21, 4:56 PM)100% (Jul 18, 10:56 AM)30.08 "Hg (Jul 18, 10:56 AM)
Low74 °F (Jul 18, 7:56 AM)24% (Jul 14, 5:56 PM)29.68 "Hg (Jul 17, 5:56 PM)
Average89 °F56%29.92 "Hg
* Reported Jul 13 10:56 AM — Jul 28 10:56 AM, Laredo, Weather by CustomWeather, © 2014

Note: Actual official high and low records may vary slightly from our data, if they occured in-between our weather recording intervals... More about our weather records

Advertising

Laredo weather history for previous 24 hours

 ConditionsComfort  
Time TempWeatherWind HumidityBarometerVisibility
10:56 AM
Jul 28
91 °FSunny.13 mph54%30.07 "Hg10 mi
9:56 AM88 °FPassing clouds.10 mph63%30.06 "Hg10 mi
8:56 AM84 °FPassing clouds.13 mph72%30.06 "Hg10 mi
7:56 AM81 °FClear.9 mph79%30.04 "Hg10 mi
6:56 AM80 °FClear.10 mph82%30.03 "Hg10 mi
5:56 AM80 °FPassing clouds.12 mph82%30.02 "Hg10 mi
4:56 AM81 °FPassing clouds.12 mph79%30.01 "Hg10 mi
3:56 AM81 °FClear.10 mph76%30.00 "Hg10 mi
2:56 AM82 °FClear.10 mph69%29.99 "Hg10 mi
1:56 AM84 °FClear.17 mph65%30.00 "Hg10 mi
12:56 AM86 °FClear.10 mph51%30.00 "Hg10 mi
11:56 PM
Jul 27
88 °FClear.15 mph46%29.98 "Hg10 mi
10:56 PM90 °FClear.21 mph43%29.97 "Hg10 mi
9:56 PM93 °FClear.21 mph41%29.95 "Hg10 mi
8:56 PM96 °FSunny.23 mph36%29.92 "Hg10 mi
7:56 PM99 °FSunny.18 mph34%29.90 "Hg10 mi
6:56 PM103 °FSunny.16 mph28%29.89 "Hg10 mi
5:56 PM104 °FSunny.17 mph25%29.88 "Hg10 mi
4:56 PM105 °FSunny.17 mph25%29.90 "Hg10 mi
3:56 PM104 °FSunny.12 mph24%29.91 "Hg10 mi
2:56 PM103 °FSunny.8 mph27%29.93 "Hg10 mi
1:56 PM101 °FPassing clouds.15 mph30%29.95 "Hg10 mi
12:56 PM100 °FSunny.15 mph31%29.97 "Hg10 mi
Weather by CustomWeather, © 2014

See weather overviewHow to use our weather pages